Time,TemperatureF,DewpointF,PressureIn,WindDirection,WindDirectionDegrees,WindSpeedMPH,WindSpeedGustMPH,Humidity,HourlyPrecipIn,Conditions,Clouds,dailyrainin,SoftwareType,DateUTC
2013-01-10 00:03:00,64.0,-99.9,-100.00,ENE,70,6.0,-999.0,-999,0.00,,,-99.99,,2013-01-10 06:03:00,
2013-01-10 00:12:00,64.0,-99.9,-100.00,ENE,70,6.0,-999.0,-999,0.00,,,-99.99,,2013-01-10 06:12:00,
2013-01-10 00:22:00,64.0,-99.9,-100.00,East,86,6.0,-999.0,-999,0.00,,,-99.99,,2013-01-10 06:22:00,
2013-01-10 00:32:00,63.0,-99.9,-100.00,ENE,66,7.0,-999.0,-999,0.00,,,-99.99,,2013-01-10 06:32:00,
2013-01-10 00:42:00,63.0,-99.9,-100.00,ENE,66,7.0,-999.0,-999,0.00,,,-99.99,,2013-01-10 06:42:00,
2013-01-10 00:53:00,65.0,-99.9,-100.00,East,86,8.0,-999.0,-999,0.00,,,-99.99,,2013-01-10 06:53:00,
2013-01-10 01:02:00,63.0,-99.9,-100.00,ENE,75,7.0,-999.0,-999,0.00,,,-99.99,,2013-01-10 07:02:00,
2013-01-10 01:12:00,63.0,-99.9,-100.00,ENE,75,7.0,-999.0,-999,0.00,,,-99.99,,2013-01-10 07:12:00,
2013-01-10 01:22:00,64.0,-99.9,-100.00,East,80,8.0,-999.0,-999,0.00,,,-99.99,,2013-01-10 07:22:00,
2013-01-10 01:32:00,64.0,-99.9,-100.00,East,89,9.0,-999.0,-999,0.00,,,-99.99,,2013-01-10 07:32:00,
2013-01-10 01:42:00,64.0,-99.9,-100.00,East,89,9.0,-999.0,-999,0.00,,,-99.99,,2013-01-10 07:42:00,
2013-01-10 01:52:00,63.0,-99.9,-100.00,ENE,76,10.0,-999.0,-999,0.00,,,-99.99,,2013-01-10 07:52:00,
2013-01-10 02:02:00,63.0,-99.9,-100.00,East,84,7.0,-999.0,-999,0.00,,,-99.99,,2013-01-10 08:02:00,
2013-01-10 02:12:00,63.0,-99.9,-100.00,East,84,7.0,-999.0,-999,0.00,,,-99.99,,2013-01-10 08:12:00,
2013-01-10 02:22:00,64.0,-99.9,-100.00,East,90,5.0,-999.0,-999,0.00,,,-99.99,,2013-01-10 08:22:00,
2013-01-10 02:33:00,64.0,-99.9,-100.00,NE,56,0.0,-999.0,-999,0.00,,,-99.99,,2013-01-10 08:33:00,
2013-01-10 02:42:00,64.0,-99.9,-100.00,NE,56,0.0,-999.0,-999,0.00,,,-99.99,,2013-01-10 08:42:00,
2013-01-10 02:53:00,64.0,-99.9,-100.00,ENE,65,5.0,-999.0,-999,0.00,,,-99.99,,2013-01-10 08:53:00,
2013-01-10 03:02:00,64.0,-99.9,-100.00,East,84,6.0,-999.0,-999,0.00,,,-99.99,,2013-01-10 09:02:00,
2013-01-10 03:12:00,64.0,-99.9,-100.00,East,84,6.0,-999.0,-999,0.00,,,-99.99,,2013-01-10 09:12:00,
2013-01-10 03:22:00,64.0,-99.9,-100.00,East,80,5.0,-999.0,-999,0.00,,,-99.99,,2013-01-10 09:22:00,
2013-01-10 03:32:00,64.0,-99.9,-100.00,East,84,7.0,-999.0,-999,0.00,,,-99.99,,2013-01-10 09:32:00,
2013-01-10 03:43:00,64.0,-99.9,-100.00,East,84,7.0,-999.0,-999,0.00,,,-99.99,,2013-01-10 09:43:00,
2013-01-10 03:53:00,64.0,-99.9,-100.00,ENE,76,7.0,-999.0,-999,0.00,,,-99.99,,2013-01-10 09:53:00,
2013-01-10 04:03:00,64.0,-99.9,-100.00,ENE,77,6.0,-999.0,-999,0.00,,,-99.99,,2013-01-10 10:03:00,
2013-01-10 04:12:00,64.0,-99.9,-100.00,ENE,77,6.0,-999.0,-999,0.00,,,-99.99,,2013-01-10 10:12:00,
2013-01-10 04:22:00,64.0,-99.9,-100.00,ENE,76,6.0,-999.0,-999,0.00,,,-99.99,,2013-01-10 10:22:00,
2013-01-10 04:33:00,64.0,-99.9,-100.00,ENE,72,6.0,-999.0,-999,0.00,,,-99.99,,2013-01-10 10:33:00,
2013-01-10 04:43:00,64.0,-99.9,-100.00,ENE,72,6.0,-999.0,-999,0.00,,,-99.99,,2013-01-10 10:43:00,
2013-01-10 04:53:00,65.0,-99.9,-100.00,East,79,7.0,-999.0,-999,0.00,,,-99.99,,2013-01-10 10:53:00,
2013-01-10 05:03:00,65.0,-99.9,-100.00,East,86,8.0,-999.0,-999,0.00,,,-99.99,,2013-01-10 11:03:00,
2013-01-10 05:12:00,64.0,-99.9,-100.00,NE,55,3.0,-999.0,-999,0.00,,,-99.99,,2013-01-10 11:12:00,
2013-01-10 05:23:00,64.0,-99.9,-100.00,NE,55,3.0,-999.0,-999,0.00,,,-99.99,,2013-01-10 11:23:00,
2013-01-10 05:33:00,63.0,-99.9,-100.00,ESE,110,8.0,-999.0,-999,0.00,,,-99.99,,2013-01-10 11:33:00,
2013-01-10 05:43:00,63.0,-99.9,-100.00,ESE,110,8.0,-999.0,-999,0.00,,,-99.99,,2013-01-10 11:43:00,
2013-01-10 05:53:00,63.0,-99.9,-100.00,East,90,4.0,-999.0,-999,0.00,,,-99.99,,2013-01-10 11:53:00,
2013-01-10 06:03:00,65.0,-99.9,-100.00,ESE,118,10.0,-999.0,-999,0.00,,,-99.99,,2013-01-10 12:03:00,
2013-01-10 06:12:00,65.0,-99.9,-100.00,ESE,118,10.0,-999.0,-999,0.00,,,-99.99,,2013-01-10 12:12:00,
2013-01-10 06:22:00,65.0,-99.9,-100.00,SE,127,9.0,-999.0,-999,0.00,,,-99.99,,2013-01-10 12:22:00,
2013-01-10 06:33:00,65.0,-99.9,-100.00,ESE,105,12.0,-999.0,-999,0.00,,,-99.99,,2013-01-10 12:33:00,
2013-01-10 06:43:00,65.0,-99.9,-100.00,ESE,105,12.0,-999.0,-999,0.00,,,-99.99,,2013-01-10 12:43:00,
2013-01-10 06:53:00,65.0,-99.9,-100.00,ESE,111,14.0,-999.0,-999,0.00,,,-99.99,,2013-01-10 12:53:00,
2013-01-10 07:02:00,65.0,-99.9,-100.00,ESE,104,17.0,-999.0,-999,0.00,,,-99.99,,2013-01-10 13:02:00,
2013-01-10 07:12:00,65.0,-99.9,-100.00,ESE,104,17.0,-999.0,-999,0.00,,,-99.99,,2013-01-10 13:12:00,
2013-01-10 07:22:00,65.0,-99.9,-100.00,East,101,8.0,-999.0,-999,0.00,,,-99.99,,2013-01-10 13:22:00,
2013-01-10 07:33:00,64.0,-99.9,-100.00,East,97,8.0,-999.0,-999,0.00,,,-99.99,,2013-01-10 13:33:00,
2013-01-10 07:42:00,64.0,-99.9,-100.00,East,97,8.0,-999.0,-999,0.00,,,-99.99,,2013-01-10 13:42:00,
2013-01-10 07:53:00,65.0,-99.9,-100.00,East,98,5.0,-999.0,-999,0.00,,,-99.99,,2013-01-10 13:53:00,
2013-01-10 08:03:00,64.0,-99.9,-100.00,ESE,117,8.0,-999.0,-999,0.00,,,-99.99,,2013-01-10 14:03:00,
2013-01-10 08:12:00,64.0,-99.9,-100.00,ESE,117,8.0,-999.0,-999,0.00,,,-99.99,,2013-01-10 14:12:00,
2013-01-10 08:23:00,65.0,-99.9,-100.00,ESE,105,9.0,-999.0,-999,0.00,,,-99.99,,2013-01-10 14:23:00,
2013-01-10 08:33:00,66.0,-99.9,-100.00,SE,139,8.0,-999.0,-999,0.00,,,-99.99,,2013-01-10 14:33:00,
2013-01-10 08:44:00,66.0,-99.9,-100.00,SE,139,8.0,-999.0,-999,0.00,,,-99.99,,2013-01-10 14:44:00,
2013-01-10 08:53:00,68.0,-99.9,-100.00,ESE,111,10.0,-999.0,-999,0.00,,,-99.99,,2013-01-10 14:53:00,
2013-01-10 09:03:00,68.0,-99.9,-100.00,ESE,121,10.0,-999.0,-999,0.00,,,-99.99,,2013-01-10 15:03:00,
2013-01-10 09:12:00,68.0,-99.9,-100.00,ESE,121,10.0,-999.0,-999,0.00,,,-99.99,,2013-01-10 15:12:00,
2013-01-10 09:23:00,70.0,-99.9,-100.00,SE,139,12.0,-999.0,-999,0.00,,,-99.99,,2013-01-10 15:23:00,
2013-01-10 09:33:00,71.0,-99.9,-100.00,ESE,111,12.0,-999.0,-999,0.00,,,-99.99,,2013-01-10 15:33:00,
2013-01-10 09:43:00,71.0,-99.9,-100.00,ESE,111,12.0,-999.0,-999,0.00,,,-99.99,,2013-01-10 15:43:00,
2013-01-10 09:53:00,72.0,-99.9,-100.00,SE,141,7.0,-999.0,-999,0.00,,,-99.99,,2013-01-10 15:53:00,
2013-01-10 10:03:00,72.0,-99.9,-100.00,ESE,122,12.0,-999.0,-999,0.00,,,-99.99,,2013-01-10 16:03:00,
2013-01-10 10:13:00,72.0,-99.9,-100.00,ESE,122,12.0,-999.0,-999,0.00,,,-99.99,,2013-01-10 16:13:00,
2013-01-10 10:23:00,72.0,-99.9,-100.00,ESE,108,13.0,-999.0,-999,0.00,,,-99.99,,2013-01-10 16:23:00,
2013-01-10 10:33:00,72.0,-99.9,-100.00,ESE,110,10.0,-999.0,-999,0.00,,,-99.99,,2013-01-10 16:33:00,
2013-01-10 10:43:00,72.0,-99.9,-100.00,ESE,110,10.0,-999.0,-999,0.00,,,-99.99,,2013-01-10 16:43:00,
2013-01-10 10:53:00,71.0,-99.9,-100.00,ESE,108,13.0,-999.0,-999,0.00,,,-99.99,,2013-01-10 16:53:00,
2013-01-10 11:03:00,69.0,-99.9,-100.00,SE,129,15.0,-999.0,-999,0.00,,,-99.99,,2013-01-10 17:03:00,
2013-01-10 11:13:00,69.0,-99.9,-100.00,SE,129,15.0,-999.0,-999,0.00,,,-99.99,,2013-01-10 17:13:00,
2013-01-10 11:23:00,69.0,-99.9,-100.00,SE,136,17.0,-999.0,-999,0.00,,,-99.99,,2013-01-10 17:23:00,
2013-01-10 11:33:00,70.0,-99.9,-100.00,ESE,113,12.0,-999.0,-999,0.00,,,-99.99,,2013-01-10 17:33:00,
2013-01-10 11:43:00,70.0,-99.9,-100.00,ESE,113,12.0,-999.0,-999,0.00,,,-99.99,,2013-01-10 17:43:00,
2013-01-10 11:54:00,71.0,-99.9,-100.00,SE,139,12.0,-999.0,-999,0.00,,,-99.99,,2013-01-10 17:54:00,
2013-01-10 12:04:00,69.0,-99.9,-100.00,SSE,158,10.0,-999.0,-999,0.00,,,-99.99,,2013-01-10 18:04:00,
2013-01-10 12:13:00,70.0,-99.9,-100.00,East,89,13.0,-999.0,-999,0.00,,,-99.99,,2013-01-10 18:13:00,
2013-01-10 12:24:00,70.0,-99.9,-100.00,East,89,13.0,-999.0,-999,0.00,,,-99.99,,2013-01-10 18:24:00,
2013-01-10 12:33:00,70.0,-99.9,-100.00,SSE,148,9.0,-999.0,-999,0.00,,,-99.99,,2013-01-10 18:33:00,
2013-01-10 12:44:00,70.0,-99.9,-100.00,SE,134,15.0,-999.0,-999,0.00,,,-99.99,,2013-01-10 18:44:00,
2013-01-10 12:53:00,70.0,-99.9,-100.00,SE,134,15.0,-999.0,-999,0.00,,,-99.99,,2013-01-10 18:53:00,
2013-01-10 13:03:00,71.0,-99.9,-100.00,SE,127,10.0,-999.0,-999,0.00,,,-99.99,,2013-01-10 19:03:00,
2013-01-10 13:13:00,68.0,-99.9,-100.00,SSE,149,13.0,-999.0,-999,0.00,,,-99.99,,2013-01-10 19:13:00,
2013-01-10 13:23:00,68.0,-99.9,-100.00,SSE,149,13.0,-999.0,-999,0.00,,,-99.99,,2013-01-10 19:23:00,
2013-01-10 13:33:00,67.0,-99.9,-100.00,SSE,152,12.0,-999.0,-999,0.00,,,-99.99,,2013-01-10 19:33:00,
2013-01-10 13:44:00,67.0,-99.9,-100.00,ESE,110,16.0,-999.0,-999,0.00,,,-99.99,,2013-01-10 19:44:00,
2013-01-10 13:54:00,67.0,-99.9,-100.00,ESE,110,16.0,-999.0,-999,0.00,,,-99.99,,2013-01-10 19:54:00,
2013-01-10 14:03:00,68.0,-99.9,-100.00,ESE,108,10.0,-999.0,-999,0.00,,,-99.99,,2013-01-10 20:03:00,
2013-01-10 14:13:00,68.0,-99.9,-100.00,ESE,122,14.0,-999.0,-999,0.00,,,-99.99,,2013-01-10 20:13:00,
2013-01-10 14:24:00,68.0,-99.9,-100.00,ESE,122,14.0,-999.0,-999,0.00,,,-99.99,,2013-01-10 20:24:00,
2013-01-10 14:33:00,68.0,-99.9,-100.00,ESE,103,12.0,-999.0,-999,0.00,,,-99.99,,2013-01-10 20:33:00,
2013-01-10 14:43:00,68.0,-99.9,-100.00,ESE,103,12.0,-999.0,-999,0.00,,,-99.99,,2013-01-10 20:43:00,
2013-01-10 14:54:00,68.0,-99.9,-100.00,ESE,108,14.0,-999.0,-999,0.00,,,-99.99,,2013-01-10 20:54:00,
2013-01-10 15:04:00,68.0,-99.9,-100.00,SE,124,19.0,-999.0,-999,0.00,,,-99.99,,2013-01-10 21:04:00,
2013-01-10 15:13:00,68.0,-99.9,-100.00,SE,125,18.0,-999.0,-999,0.00,,,-99.99,,2013-01-10 21:13:00,
2013-01-10 15:23:00,68.0,-99.9,-100.00,SE,125,18.0,-999.0,-999,0.00,,,-99.99,,2013-01-10 21:23:00,
2013-01-10 15:33:00,68.0,-99.9,-100.00,ESE,115,17.0,-999.0,-999,0.00,,,-99.99,,2013-01-10 21:33:00,
2013-01-10 15:44:00,68.0,-99.9,-100.00,ESE,115,17.0,-999.0,-999,0.00,,,-99.99,,2013-01-10 21:44:00,
2013-01-10 16:04:00,65.0,-99.9,-100.00,South,169,16.0,-999.0,-999,0.00,,,-99.99,,2013-01-10 22:04:00,
2013-01-10 16:13:00,63.0,-99.9,-100.00,SSE,160,14.0,-999.0,-999,0.00,,,-99.99,,2013-01-10 22:13:00,
2013-01-10 16:27:00,63.0,-99.9,-100.00,SSE,160,14.0,-999.0,-999,0.00,,,-99.99,,2013-01-10 22:27:00,
2013-01-10 16:34:00,63.0,-99.9,-100.00,SSW,195,6.0,-999.0,-999,0.00,,,-99.99,,2013-01-10 22:34:00,
2013-01-10 16:44:00,63.0,-99.9,-100.00,SSW,195,6.0,-999.0,-999,0.00,,,-99.99,,2013-01-10 22:44:00,
2013-01-10 17:03:00,65.0,-99.9,-100.00,SSE,162,7.0,-999.0,-999,0.00,,,-99.99,,2013-01-10 23:03:00,
2013-01-10 17:13:00,64.0,-99.9,-100.00,SE,145,0.0,-999.0,-999,0.00,,,-99.99,,2013-01-10 23:13:00,
2013-01-10 17:23:00,64.0,-99.9,-100.00,SE,145,0.0,-999.0,-999,0.00,,,-99.99,,2013-01-10 23:23:00,
2013-01-10 17:33:00,63.0,-99.9,-100.00,ENE,77,3.0,-999.0,-999,0.00,,,-99.99,,2013-01-10 23:33:00,
2013-01-10 17:43:00,63.0,-99.9,-100.00,ENE,77,3.0,-999.0,-999,0.00,,,-99.99,,2013-01-10 23:43:00,
2013-01-10 17:54:00,62.0,-99.9,-100.00,East,83,0.0,-999.0,-999,0.00,,,-99.99,,2013-01-10 23:54:00,
2013-01-10 18:03:00,62.0,-99.9,-100.00,East,83,0.0,-999.0,-999,0.00,,,-99.99,,2013-01-11 00:03:00,
2013-01-10 18:13:00,61.0,-99.9,-100.00,East,83,0.0,-999.0,-999,0.00,,,-99.99,,2013-01-11 00:13:00,
2013-01-10 18:23:00,61.0,-99.9,-100.00,East,83,0.0,-999.0,-999,0.00,,,-99.99,,2013-01-11 00:23:00,
2013-01-10 18:33:00,61.0,-99.9,-100.00,ENE,77,0.0,-999.0,-999,0.00,,,-99.99,,2013-01-11 00:33:00,
2013-01-10 18:43:00,61.0,-99.9,-100.00,ENE,77,0.0,-999.0,-999,0.00,,,-99.99,,2013-01-11 00:43:00,
2013-01-10 18:53:00,60.0,-99.9,-100.00,ENE,77,0.0,-999.0,-999,0.00,,,-99.99,,2013-01-11 00:53:00,
2013-01-10 19:03:00,60.0,-99.9,-100.00,ENE,68,0.0,-999.0,-999,0.00,,,-99.99,,2013-01-11 01:03:00,
2013-01-10 19:13:00,61.0,-99.9,-100.00,NNE,27,0.0,-999.0,-999,0.00,,,-99.99,,2013-01-11 01:13:00,
2013-01-10 19:24:00,61.0,-99.9,-100.00,NNE,27,0.0,-999.0,-999,0.00,,,-99.99,,2013-01-11 01:24:00,
2013-01-10 19:34:00,62.0,-99.9,-100.00,East,80,13.0,-999.0,-999,0.00,,,-99.99,,2013-01-11 01:34:00,
2013-01-10 19:44:00,62.0,-99.9,-100.00,East,80,13.0,-999.0,-999,0.00,,,-99.99,,2013-01-11 01:44:00,
2013-01-10 19:54:00,61.0,-99.9,-100.00,ESE,115,12.0,-999.0,-999,0.00,,,-99.99,,2013-01-11 01:54:00,
2013-01-10 20:03:00,61.0,-99.9,-100.00,ESE,113,7.0,-999.0,-999,0.00,,,-99.99,,2013-01-11 02:03:00,
2013-01-10 20:13:00,62.0,-99.9,-100.00,ESE,104,10.0,-999.0,-999,0.00,,,-99.99,,2013-01-11 02:13:00,
2013-01-10 20:24:00,62.0,-99.9,-100.00,ESE,104,10.0,-999.0,-999,0.00,,,-99.99,,2013-01-11 02:24:00,
2013-01-10 20:34:00,61.0,-99.9,-100.00,SE,129,11.0,-999.0,-999,0.00,,,-99.99,,2013-01-11 02:34:00,
2013-01-10 20:44:00,61.0,-99.9,-100.00,SE,129,11.0,-999.0,-999,0.00,,,-99.99,,2013-01-11 02:44:00,
2013-01-10 20:54:00,61.0,-99.9,-100.00,SE,132,16.0,-999.0,-999,0.00,,,-99.99,,2013-01-11 02:54:00,
2013-01-10 21:03:00,61.0,-99.9,-100.00,ESE,117,23.0,-999.0,-999,0.00,,,-99.99,,2013-01-11 03:03:00,
2013-01-10 21:13:00,62.0,-99.9,-100.00,SE,135,14.0,-999.0,-999,0.00,,,-99.99,,2013-01-11 03:13:00,
2013-01-10 21:23:00,62.0,-99.9,-100.00,SE,135,14.0,-999.0,-999,0.00,,,-99.99,,2013-01-11 03:23:00,
2013-01-10 21:34:00,62.0,-99.9,-100.00,ESE,122,20.0,-999.0,-999,0.00,,,-99.99,,2013-01-11 03:34:00,
2013-01-10 21:43:00,62.0,-99.9,-100.00,ESE,122,20.0,-999.0,-999,0.00,,,-99.99,,2013-01-11 03:43:00,
2013-01-10 21:53:00,62.0,-99.9,-100.00,ENE,70,14.0,-999.0,-999,0.00,,,-99.99,,2013-01-11 03:53:00,
2013-01-10 22:03:00,64.0,-99.9,-100.00,East,98,17.0,-999.0,-999,0.00,,,-99.99,,2013-01-11 04:03:00,
2013-01-10 22:12:00,63.0,-99.9,-100.00,SE,145,14.0,-999.0,-999,0.00,,,-99.99,,2013-01-11 04:12:00,
2013-01-10 22:23:00,63.0,-99.9,-100.00,SE,145,14.0,-999.0,-999,0.00,,,-99.99,,2013-01-11 04:23:00,
2013-01-10 22:33:00,62.0,-99.9,-100.00,SE,142,19.0,-999.0,-999,0.00,,,-99.99,,2013-01-11 04:33:00,
2013-01-10 22:43:00,62.0,-99.9,-100.00,SE,142,19.0,-999.0,-999,0.00,,,-99.99,,2013-01-11 04:43:00,
2013-01-10 22:53:00,63.0,-99.9,-100.00,ESE,114,23.0,-999.0,-999,0.00,,,-99.99,,2013-01-11 04:53:00,
2013-01-10 23:04:00,64.0,-99.9,-100.00,ESE,120,9.0,-999.0,-999,0.00,,,-99.99,,2013-01-11 05:04:00,
2013-01-10 23:13:00,65.0,-99.9,-100.00,SSE,165,6.0,-999.0,-999,0.00,,,-99.99,,2013-01-11 05:13:00,
2013-01-10 23:23:00,65.0,-99.9,-100.00,SSE,165,6.0,-999.0,-999,0.00,,,-99.99,,2013-01-11 05:23:00,
2013-01-10 23:33:00,64.0,-99.9,-100.00,SW,217,8.0,-999.0,-999,0.00,,,-99.99,,2013-01-11 05:33:00,
2013-01-10 23:43:00,64.0,-99.9,-100.00,SW,217,8.0,-999.0,-999,0.00,,,-99.99,,2013-01-11 05:43:00,
2013-01-10 23:53:00,64.0,-99.9,-100.00,SSW,212,10.0,-999.0,-999,0.00,,,-99.99,,2013-01-11 05:53:00,